Weather History for Grosse Ile, MI

Change the Weather History Date:

Friday, November 2, 2012

  Actual Average (KDTW) Record (KDTW)
Temperature  
Mean Temperature 40 °F 47 °F  
Max Temperature 42 °F 55 °F 75 °F (1933)
Min Temperature 37 °F 39 °F 22 °F (1951)
Degree Days  
Heating Degree Days 26 18  
Month to date heating degree days 36  
Since 1 July heating degree days 547  
Cooling Degree Days 0 0  
Month to date cooling degree days 0  
Year to date cooling degree days 803  
Moisture  
Dew Point 28 °F    
Average Humidity 62    
Maximum Humidity 75    
Minimum Humidity 53    
Precipitation  
Precipitation 0.00 in 0.09 in 1.02 in (1955)
Month to date precipitation 0.18  
Year to date precipitation 28.40  
Snow  
Snow 0.00 in 0.00 in 4.70 in (1966)
Month to date snowfall 0.0  
Since 1 July snowfall 0.1  
Since 1 September snowfall 0.1  
Snow Depth -    
Sea Level Pressure  
Sea Level Pressure 29.91 in    
Wind  
Wind Speed 9 mph (NW)    
Max Wind Speed 16 mph    
Max Gust Speed 23 mph    
Visibility 10 miles    
Events      
T = Trace of Precipitation, MM = Missing Value Source: NWS Daily Summary

Daily Weather History Graph

Daily Weather History Graph

Search for Another Location

Airport:

Trip Planner

Search our weather history database for the weather conditions in past years. The results will help you decide how hot, cold, wet, or windy it might be!

Date:

Astronomy

Nov. 02, 2012 Rise Set
Actual Time 8:07 AM EDT 6:24 PM EDT
Civil Twilight 7:38 AM EDT 6:53 PM EDT
Nautical Twilight 7:04 AM EDT 7:26 PM EDT
Astronomical Twilight 6:32 AM EDT 7:59 PM EDT
Moon 9:08 PM EDT (11/2) 11:29 AM EDT (11/2)
Length of Visible Light 11h 15m
Length of Day
10h 17m
Waning Gibbous, 87% of the Moon is Illuminated
Nov 2
Waning Gibbous
Nov 6
Last Quarter
Nov 13
New
Nov 20
First Quarter
Nov 28
Full

Hourly Weather History & Observations

Time (EDT) Temp. Windchill Dew Point Humidity Pressure Visibility Wind Dir Wind Speed Gust Speed Precip Events Conditions
12:14 AM 41.0 °F 35.8 °F 28.4 °F 61% 29.77 in 10.0 mi WNW 8.1 mph - N/A   Mostly Cloudy
12:34 AM 39.2 °F 33.0 °F 28.4 °F 65% 29.77 in 10.0 mi WNW 9.2 mph - N/A   Mostly Cloudy
12:54 AM 39.2 °F 34.2 °F 28.4 °F 65% 29.77 in 10.0 mi WNW 6.9 mph - N/A   Scattered Clouds
1:14 AM 39.2 °F 34.2 °F 28.4 °F 65% 29.77 in 10.0 mi WNW 6.9 mph - N/A   Scattered Clouds
1:34 AM 39.2 °F 34.2 °F 28.4 °F 65% 29.78 in 10.0 mi WNW 6.9 mph - N/A   Mostly Cloudy
1:54 AM 39.2 °F 33.6 °F 28.4 °F 65% 29.78 in 10.0 mi WNW 8.1 mph - N/A   Overcast
2:14 AM 39.2 °F 34.2 °F 28.4 °F 65% 29.77 in 10.0 mi WNW 6.9 mph - N/A   Overcast
2:34 AM 39.2 °F 34.2 °F 28.4 °F 65% 29.78 in 10.0 mi West 6.9 mph - N/A   Overcast
2:54 AM 39.2 °F 34.2 °F 28.4 °F 65% 29.78 in 10.0 mi WNW 6.9 mph - N/A   Overcast
3:14 AM 39.2 °F 33.6 °F 28.4 °F 65% 29.79 in 10.0 mi WNW 8.1 mph - N/A   Overcast
3:34 AM 39.2 °F 32.5 °F 28.4 °F 65% 29.79 in 10.0 mi WNW 10.4 mph - N/A   Overcast
3:54 AM 39.2 °F 32.5 °F 28.4 °F 65% 29.79 in 10.0 mi WNW 10.4 mph 16.1 mph N/A   Overcast
4:14 AM 39.2 °F 33.0 °F 28.4 °F 65% 29.79 in 10.0 mi NW 9.2 mph - N/A   Overcast
4:34 AM 39.2 °F 33.6 °F 28.4 °F 65% 29.79 in 10.0 mi WNW 8.1 mph - N/A   Overcast
4:54 AM 39.2 °F 33.6 °F 28.4 °F 65% 29.79 in 10.0 mi WNW 8.1 mph - N/A   Overcast
5:14 AM 39.2 °F 33.6 °F 28.4 °F 65% 29.79 in 10.0 mi West 8.1 mph - N/A   Overcast
5:34 AM 39.2 °F 34.2 °F 28.4 °F 65% 29.80 in 10.0 mi WNW 6.9 mph - N/A   Overcast
5:54 AM 39.2 °F 34.2 °F 28.4 °F 65% 29.81 in 10.0 mi NW 6.9 mph - N/A   Overcast
6:14 AM 41.0 °F 36.4 °F 28.4 °F 61% 29.81 in 10.0 mi NW 6.9 mph - N/A   Overcast
6:34 AM 41.0 °F 35.8 °F 28.4 °F 61% 29.81 in 10.0 mi West 8.1 mph - N/A   Overcast
6:54 AM 39.2 °F 34.2 °F 28.4 °F 65% 29.82 in 10.0 mi West 6.9 mph - N/A   Overcast
7:14 AM 39.2 °F 37.0 °F 28.4 °F 65% 29.82 in 10.0 mi West 3.5 mph - N/A   Overcast
7:34 AM 39.2 °F 35.0 °F 30.2 °F 70% 29.83 in 10.0 mi WNW 5.8 mph - N/A   Overcast
7:54 AM 39.2 °F 33.0 °F 28.4 °F 65% 29.84 in 10.0 mi WNW 9.2 mph - N/A   Overcast
8:14 AM 39.2 °F 32.0 °F 28.4 °F 65% 29.84 in 10.0 mi WNW 11.5 mph 16.1 mph N/A   Overcast
8:34 AM 39.2 °F 33.0 °F 28.4 °F 65% 29.85 in 10.0 mi WNW 9.2 mph - N/A   Overcast
8:54 AM 39.2 °F 33.0 °F 30.2 °F 70% 29.85 in 10.0 mi WNW 9.2 mph - N/A   Overcast
9:14 AM 39.2 °F 31.6 °F 30.2 °F 70% 29.86 in 10.0 mi NW 12.7 mph 16.1 mph N/A   Overcast
9:34 AM 41.0 °F 34.7 °F 30.2 °F 65% 29.87 in 10.0 mi North 10.4 mph 17.3 mph N/A   Overcast
9:54 AM 37.4 °F 28.5 °F 30.2 °F 75% 29.88 in 10.0 mi NW 15.0 mph 20.7 mph N/A   Overcast
10:14 AM 37.4 °F 28.2 °F 30.2 °F 75% 29.89 in 10.0 mi NNW 16.1 mph - N/A   Overcast
10:35 AM 39.2 °F 31.6 °F 30.2 °F 70% 29.90 in 10.0 mi NNW 12.7 mph 20.7 mph N/A   Overcast
10:54 AM 39.2 °F 31.6 °F 28.4 °F 65% 29.90 in 10.0 mi NNW 12.7 mph 20.7 mph N/A   Mostly Cloudy
11:14 AM 41.0 °F 33.1 °F 28.4 °F 61% 29.91 in 10.0 mi NW 15.0 mph 21.9 mph N/A   Mostly Cloudy
11:34 AM 41.0 °F 33.9 °F 26.6 °F 57% 29.91 in 10.0 mi NNW 12.7 mph 20.7 mph N/A   Overcast
11:54 AM 39.2 °F 33.0 °F 26.6 °F 61% 29.92 in 10.0 mi NNW 9.2 mph - N/A   Overcast
12:15 PM 42.8 °F 36.6 °F 26.6 °F 53% 29.93 in 10.0 mi NNW 11.5 mph - N/A   Mostly Cloudy
12:34 PM 41.0 °F 33.9 °F 26.6 °F 57% 29.93 in 10.0 mi NW 12.7 mph 16.1 mph N/A   Overcast
12:54 PM 41.0 °F 33.1 °F 26.6 °F 57% 29.94 in 10.0 mi NNW 15.0 mph 23.0 mph N/A   Overcast
1:14 PM 41.0 °F 33.1 °F 26.6 °F 57% 29.94 in 10.0 mi NW 15.0 mph 19.6 mph N/A   Mostly Cloudy
1:34 PM 41.0 °F 33.1 °F 26.6 °F 57% 29.94 in 10.0 mi NNW 15.0 mph 21.9 mph N/A   Overcast
1:54 PM 41.0 °F 33.1 °F 26.6 °F 57% 29.94 in 10.0 mi NW 15.0 mph 21.9 mph N/A   Overcast
2:14 PM 42.8 °F 36.2 °F 26.6 °F 53% 29.94 in 10.0 mi NNW 12.7 mph - N/A   Overcast
2:34 PM 41.0 °F 33.1 °F 26.6 °F 57% 29.95 in 10.0 mi NW 15.0 mph 21.9 mph N/A   Overcast
2:54 PM 41.0 °F 34.3 °F 26.6 °F 57% 29.95 in 10.0 mi NW 11.5 mph 16.1 mph N/A   Overcast
3:14 PM 41.0 °F 34.7 °F 26.6 °F 57% 29.96 in 10.0 mi NNW 10.4 mph 16.1 mph N/A   Overcast
3:34 PM 41.0 °F 34.3 °F 26.6 °F 57% 29.96 in 10.0 mi NW 11.5 mph - N/A   Overcast
3:54 PM 41.0 °F 34.3 °F 26.6 °F 57% 29.97 in 10.0 mi NW 11.5 mph 17.3 mph N/A   Overcast
4:14 PM 42.8 °F 35.8 °F 26.6 °F 53% 29.97 in 10.0 mi NW 13.8 mph 20.7 mph N/A   Overcast
4:34 PM 42.8 °F 36.6 °F 28.4 °F 57% 29.97 in 10.0 mi NW 11.5 mph - N/A   Overcast
4:54 PM 42.8 °F 37.5 °F 28.4 °F 57% 29.98 in 10.0 mi NW 9.2 mph 18.4 mph N/A   Overcast
5:14 PM 42.8 °F 38.0 °F 28.4 °F 57% 29.98 in 10.0 mi NW 8.1 mph - N/A   Overcast
5:34 PM 42.8 °F 37.5 °F 28.4 °F 57% 29.98 in 10.0 mi NW 9.2 mph - N/A   Overcast
5:54 PM 42.8 °F 39.3 °F 28.4 °F 57% 29.99 in 10.0 mi WNW 5.8 mph - N/A   Overcast
6:14 PM 42.8 °F 38.6 °F 28.4 °F 57% 29.99 in 10.0 mi WNW 6.9 mph - N/A   Overcast
6:35 PM 42.8 °F 38.6 °F 28.4 °F 57% 30.00 in 10.0 mi NW 6.9 mph - N/A   Overcast
6:54 PM 42.8 °F 38.0 °F 30.2 °F 61% 30.00 in 10.0 mi NW 8.1 mph - N/A   Overcast
7:14 PM 42.8 °F 39.3 °F 30.2 °F 61% 30.01 in 10.0 mi NW 5.8 mph - N/A   Overcast
7:35 PM 42.8 °F 36.2 °F 30.2 °F 61% 30.01 in 10.0 mi NW 12.7 mph 17.3 mph N/A   Overcast
7:54 PM 42.8 °F 40.1 °F 28.4 °F 57% 30.02 in 10.0 mi NNE 4.6 mph - N/A   Overcast
8:14 PM 42.8 °F 41.1 °F 30.2 °F 61% 30.02 in 10.0 mi North 3.5 mph - N/A   Overcast
8:34 PM 41.0 °F 38.0 °F 30.2 °F 65% 30.03 in 10.0 mi North 4.6 mph - N/A   Overcast
8:54 PM 41.0 °F 38.0 °F 30.2 °F 65% 30.03 in 10.0 mi North 4.6 mph - N/A   Overcast
9:14 PM 41.0 °F 38.0 °F 30.2 °F 65% 30.03 in 10.0 mi North 4.6 mph - N/A   Overcast
9:34 PM 41.0 °F 39.0 °F 30.2 °F 65% 30.03 in 10.0 mi NNE 3.5 mph - N/A   Overcast
9:54 PM 41.0 °F 37.1 °F 30.2 °F 65% 30.03 in 10.0 mi North 5.8 mph - N/A   Overcast
10:14 PM 41.0 °F 35.2 °F 28.4 °F 61% 30.04 in 10.0 mi NNW 9.2 mph - N/A   Overcast
10:34 PM 41.0 °F 36.4 °F 30.2 °F 65% 30.04 in 10.0 mi NNW 6.9 mph - N/A   Overcast
10:54 PM 41.0 °F 37.1 °F 28.4 °F 61% 30.04 in 10.0 mi NNW 5.8 mph - N/A   Overcast
11:14 PM 41.0 °F 36.4 °F 28.4 °F 61% 30.04 in 10.0 mi NNW 6.9 mph - N/A   Overcast
11:34 PM 41.0 °F 38.0 °F 28.4 °F 61% 30.04 in 10.0 mi North 4.6 mph - N/A   Overcast
11:54 PM 41.0 °F 36.4 °F 28.4 °F 61% 30.05 in 10.0 mi NNW 6.9 mph - N/A   Overcast